Regional Weather Roundup
Issued by NWS Cleveland, OH

Home | Current Version | Previous Version | Graphics & Text | Print | Product List | Glossary On
Versions: 1 2 3 4 5 6 7 8 9 10 11 12 13 14 15 16 17 18 19 20 21 22 23 24 25 26 27 28 29 30 31 32 33 34 35 36 37 38 39 40 41 42 43 44 45 46 47 48 49 50
000
ASUS41 KCLE 291110
RWRCLE
OHIO REGIONAL WEATHER ROUNDUP
NATIONAL WEATHER SERVICE CLEVELAND, OH
700 AM EDT FRI MAY 29 2015

NOTE: "FAIR" INDICATES FEW OR NO CLOUDS BELOW 12,000 FEET WITH NO
SIGNIFICANT WEATHER AND/OR OBSTRUCTIONS TO VISIBILITY.

OHZ001>008-015>018-024>027-034-035-043-044-291200-
   NORTHWEST OHIO

CITY           SKY/WX    TMP DP  RH WIND       PRES   REMARKS
DEFIANCE       PTCLDY    63  60  90 CALM      30.14S FOG
FINDLAY        CLOUDY    67  61  81 SE6       30.14S
TOLEDO EXPRESS CLEAR     61  58  90 SE3       30.14F
TOLEDO EXEC    CLEAR     63  57  81 CALM      30.16S
LIMA           MOCLDY    67  62  84 SE6       30.15S
$$

OHZ009>014-019>023-028>033-038-089-291200-
   NORTHEAST OHIO

CITY           SKY/WX    TMP DP  RH WIND       PRES   REMARKS
CLE-HOPKINS    MOCLDY    65  56  72 S7        30.20S
CLE-LAKEFRONT  CLEAR     67  55  65 SE12      30.17S
CUY CO. ARPT   PTSUNNY   68 N/A N/A S12       30.20
LORAIN-ELYRIA  PTCLDY    60  56  86 S3        30.19R
ASHTABULA      SUNNY     61  55  81 SE6       30.23R
AKRON-CANTON   PTCLDY    65  54  67 SE7       30.21R
WOOSTER        PTCLDY    61  57  87 CALM      30.21R
MANSFIELD      MOCLDY    65  59  81 S5        30.20S
YOUNGSTOWN     PTSUNNY   61  54  77 E9        30.22S
$$

OHZ042-051>053-060>062-070>072-077>081-291200-
  SOUTHWEST OHIO

CITY           SKY/WX    TMP DP  RH WIND       PRES   REMARKS
CINC-COVINGTON MOCLDY    66  65  96 SE3       30.15R
CINC-LUNKEN    PTCLDY    64  64 100 CALM      30.15S FOG
HAMILTON       FOG       66  65  96 CALM      30.15R VSB 1/2
DAYTON         LGT RAIN  69  66  90 S7        30.17R
WRIGHT-PAT AFB LGT RAIN  68  67  98 CALM      30.16R
DAYTON GENERAL MOCLDY    67  66  97 E5        30.15S
WILMINGTON     CLOUDY    66  63  90 CALM      30.16S FOG
$$

OHZ036-037-039>041-045>050-054>059-063>069-073>076-082>088-291200-
  CENTRAL AND SOUTHEAST OHIO

CITY           SKY/WX    TMP DP  RH WIND       PRES   REMARKS
COLUMBUS       CLOUDY    69  62  78 E7        30.16R
OSU AIRPORT    MOCLDY    66  62  87 E5        30.17R
BOLTON FIELD   NOT AVBL
RICKENBACK AFB CLOUDY    65  63  91 NE3       30.17R
NEWARK         MOCLDY    65  61  87 CALM      30.18R
MARION         CLOUDY    67  59  75 SE7       30.17S
LANCASTER      MOCLDY    66  63  90 CALM      30.18R FOG
ZANESVILLE     NOT AVBL
NEW PHILLY     CLEAR     62  57  83 CALM      30.21R HAZE
$$



USA.gov is the U.S. government's official web portal to all federal, state and local government web resources and services.